Date String (YYYY-MM-DD hh:mm:ss) UTC,Instrument flags,Ambient pressure (hPa),Sample flow (lpm),Bypass flow (lpm),Sample temperature (°C),Ambient temperature (°C),ASC tube jacket temperature (°C),LED temperature (°C),Box temperature (°C),Sample RH (%),Span deviation,Mass concentration (μg/m³),Mass concentration (μg/m³),Mass concentration (μg/m³)
DateTimeUTC,F1_M11,P_M11,Q1_M11,Q2_M11,T1_M11,T2_M11,T3_M11,T4_M11,T5_M11,U1_M11,ZSPAN_M11,X0_M11,X2_M11,X1_M11
2022-11-14 17:00:00,,0827.0,4.99,0.00,22.4,20.9,00.0,31.3,24.2,10.3,-000.4,0015.24,0006.25,0005.17
2022-11-14 17:01:00,,0827.1,5.00,0.00,22.3,20.9,00.0,31.3,24.2,10.4,-000.6,0015.36,0006.25,0005.17
2022-11-14 17:02:00,,0827.0,5.01,0.00,22.3,20.8,00.0,31.3,24.1,10.5,-000.1,0015.05,0006.25,0005.18
2022-11-14 17:03:00,,0827.0,5.00,0.00,22.3,20.8,00.0,31.3,24.1,10.5,0000.9,0014.83,0006.29,0005.19
2022-11-14 17:04:00,,0827.1,4.99,0.00,22.3,20.8,00.0,31.3,24.1,10.5,0000.5,0015.58,0006.32,0005.19
2022-11-14 17:05:00,,0827.0,5.01,0.00,22.3,20.8,00.0,31.3,24.1,10.6,0001.0,0016.26,0006.37,0005.19
2022-11-14 17:06:00,,0827.1,5.00,0.00,22.2,20.7,00.0,31.3,24.1,10.7,0001.0,0017.86,0006.35,0005.20
2022-11-14 17:07:00,,0827.0,4.99,0.00,22.2,20.7,00.0,31.3,24.1,10.7,0001.8,0018.10,0006.38,0005.21
2022-11-14 17:08:00,,0827.0,5.00,0.00,22.2,20.6,00.0,31.3,24.0,10.5,0002.1,0018.05,0006.45,0005.23
2022-11-14 17:09:00,,0827.3,5.01,0.00,22.2,20.7,00.0,31.2,24.0,10.5,0001.8,0017.52,0006.50,0005.25
2022-11-14 17:10:00,,0826.9,5.01,0.00,22.2,20.7,00.0,31.2,24.0,10.7,0002.2,0017.48,0006.51,0005.26
2022-11-14 17:11:00,,0827.1,5.00,0.00,22.2,20.6,00.0,31.2,24.0,10.7,0002.1,0016.29,0006.51,0005.28
2022-11-14 17:12:00,,0826.9,5.01,0.00,22.1,20.6,00.0,31.2,23.9,10.7,0002.0,0015.81,0006.52,0005.29
2022-11-14 17:13:00,,0826.9,5.01,0.00,22.1,20.5,00.0,31.2,23.9,10.8,0001.8,0015.54,0006.51,0005.31
2022-11-14 17:14:00,,0826.9,5.00,0.00,22.1,20.6,00.0,31.2,23.9,10.7,0000.9,0015.96,0006.53,0005.33
2022-11-14 17:15:00,,0827.0,5.00,0.00,22.2,21.5,00.0,31.1,24.1,10.7,0001.4,0015.72,0006.54,0005.35
2022-11-14 17:16:00,,0826.9,4.99,0.00,22.3,22.3,00.0,31.1,24.3,10.6,0000.8,0015.37,0006.48,0005.37
2022-11-14 17:17:00,,0826.8,4.99,0.00,22.3,22.1,00.0,31.1,24.3,10.7,0000.3,0013.70,0006.48,0005.39
2022-11-14 17:18:00,,0826.9,5.01,0.00,22.3,21.8,00.0,31.2,24.3,10.8,0000.0,0013.50,0006.52,0005.41
2022-11-14 17:19:00,,0826.8,5.00,0.00,22.3,21.5,00.0,31.2,24.2,10.7,0000.0,0014.03,0006.55,0005.42
2022-11-14 17:20:00,,0826.8,4.99,0.00,22.3,21.4,00.0,31.2,24.2,10.7,0000.0,0014.51,0006.59,0005.43
2022-11-14 17:21:00,,0826.8,4.99,0.00,22.3,21.2,00.0,31.2,24.2,10.8,0000.0,0016.01,0006.58,0005.43
2022-11-14 17:22:00,,0826.8,5.00,0.00,22.3,21.0,00.0,31.2,24.1,10.8,0000.0,0016.52,0006.57,0005.44
2022-11-14 17:23:00,,0826.8,4.99,0.00,22.3,20.9,00.0,31.2,24.1,10.7,0000.0,0017.36,0006.56,0005.44
2022-11-14 17:24:00,,0826.8,5.02,0.00,22.2,20.8,00.0,31.2,24.0,10.7,0000.0,0017.41,0006.55,0005.45
2022-11-14 17:25:00,,0826.7,5.00,0.00,22.2,20.6,00.0,31.2,24.0,10.7,0000.0,0017.54,0006.51,0005.45
2022-11-14 17:26:00,,0826.9,5.00,0.00,22.2,20.4,00.0,31.2,23.9,10.6,0000.0,0017.25,0006.48,0005.45
2022-11-14 17:27:00,,0826.8,5.00,0.00,22.1,20.4,00.0,31.2,23.9,10.4,0000.0,0016.98,0006.47,0005.45
2022-11-14 17:28:00,,0826.7,5.00,0.00,22.1,20.5,00.0,31.2,23.9,10.6,0001.5,0016.86,0006.47,0005.45
2022-11-14 17:29:00,,0826.7,4.98,0.00,22.1,20.5,00.0,31.2,23.9,10.6,0002.3,0017.19,0006.43,0005.45
2022-11-14 17:30:00,,0826.7,5.02,0.00,22.1,20.4,00.0,31.2,23.9,10.5,0002.1,0016.61,0006.38,0005.45
2022-11-14 17:31:00,,0826.7,4.98,0.00,22.1,20.4,00.0,31.1,23.9,10.4,0002.4,0016.19,0006.33,0005.46
2022-11-14 17:32:00,,0826.7,5.00,0.00,22.0,20.4,00.0,31.1,23.8,10.3,0002.1,0014.30,0006.30,0005.45
2022-11-14 17:33:00,,0826.7,5.00,0.00,22.0,20.3,00.0,31.1,23.8,10.4,0002.0,0013.75,0006.30,0005.44
2022-11-14 17:34:00,,0826.7,5.02,0.00,22.0,20.3,00.0,31.1,23.8,10.5,0002.1,0013.16,0006.30,0005.44
2022-11-14 17:35:00,,0826.7,4.99,0.00,22.0,20.3,00.0,31.1,23.7,10.5,0002.0,0012.79,0006.31,0005.43
2022-11-14 17:36:00,,0826.7,4.99,0.00,22.0,20.3,00.0,31.0,23.7,10.4,0002.4,0012.15,0006.27,0005.42
2022-11-14 17:37:00,,0826.7,5.01,0.00,21.9,20.3,00.0,31.0,23.7,10.4,0003.2,0011.77,0006.26,0005.42
2022-11-14 17:38:00,,0826.7,5.01,0.00,21.9,20.3,00.0,31.0,23.7,10.5,0003.4,0011.72,0006.26,0005.41
2022-11-14 17:39:00,,0826.7,4.99,0.00,21.9,20.2,00.0,31.0,23.7,10.5,0003.1,0011.69,0006.24,0005.40
2022-11-14 17:40:00,,0826.7,4.99,0.00,21.9,20.2,00.0,31.0,23.6,10.5,0003.0,0011.77,0006.29,0005.40
2022-11-14 17:41:00,,0826.7,5.01,0.00,21.9,20.1,00.0,31.0,23.6,10.4,0002.8,0011.60,0006.27,0005.39
2022-11-14 17:42:00,,0826.7,5.02,0.00,21.8,20.1,00.0,30.9,23.5,10.5,0002.4,0011.82,0006.24,0005.39
2022-11-14 17:43:00,,0826.7,5.00,0.00,21.8,20.9,00.0,30.9,23.7,10.4,0002.9,0012.25,0006.21,0005.38
2022-11-14 17:44:00,,0826.7,4.99,0.00,22.0,22.0,00.0,30.8,23.9,10.5,0003.1,0012.72,0006.20,0005.38
2022-11-14 17:45:00,,0826.7,4.99,0.00,22.1,22.2,00.0,30.9,24.1,10.4,0003.1,0013.12,0006.20,0005.38
2022-11-14 17:46:00,,0826.7,5.00,0.00,22.1,21.8,00.0,30.9,24.1,10.5,0003.1,0013.41,0006.17,0005.38
2022-11-14 17:47:00,,0826.7,5.01,0.00,22.1,21.4,00.0,31.0,24.0,10.2,0002.6,0013.35,0006.17,0005.38
2022-11-14 17:48:00,,0826.7,5.01,0.00,22.1,21.0,00.0,31.0,23.9,10.2,0002.4,0013.24,0006.14,0005.37
2022-11-14 17:49:00,,0826.7,4.98,0.00,22.0,20.8,00.0,31.0,23.8,10.2,0001.8,0013.29,0006.15,0005.39
2022-11-14 17:50:00,,0826.7,5.01,0.00,22.0,20.7,00.0,31.0,23.8,10.2,0001.6,0013.27,0006.16,0005.38
2022-11-14 17:51:00,,0826.7,5.00,0.00,22.0,20.7,00.0,31.0,23.8,10.1,0001.3,0012.61,0006.11,0005.39
2022-11-14 17:52:00,,0826.7,5.00,0.00,22.0,20.6,00.0,31.0,23.8,10.0,0000.8,0012.46,0006.09,0005.40
2022-11-14 17:53:00,,0826.7,5.01,0.00,22.0,20.5,00.0,31.0,23.8,10.0,0001.1,0012.54,0006.14,0005.40
2022-11-14 17:54:00,,0826.6,4.98,0.00,22.0,20.5,00.0,31.0,23.8,10.1,0001.5,0012.25,0006.18,0005.41
2022-11-14 17:55:00,,0826.6,5.00,0.00,22.0,20.5,00.0,31.0,23.8,10.0,0001.2,0011.63,0006.18,0005.42
2022-11-14 17:56:00,,0826.6,5.01,0.00,22.0,20.5,00.0,31.0,23.8,10.0,0000.7,0011.04,0006.15,0005.42
2022-11-14 17:57:00,,0826.5,5.00,0.00,21.9,20.4,00.0,31.0,23.8,09.9,0000.8,0010.71,0006.11,0005.39
2022-11-14 17:58:00,,0826.5,5.01,0.00,21.9,20.5,00.0,31.0,23.8,10.0,0001.0,0010.65,0006.09,0005.40
2022-11-14 17:59:00,,0826.5,5.01,0.00,21.9,20.5,00.0,30.9,23.8,10.0,0001.1,0011.19,0006.10,0005.40
